Regional Weather Roundup
Issued by NWS Grand Forks, ND

Home | Current Version | Previous Version | Text Only | Print | Product List | Glossary On
Versions: 1 2 3 4 5 6 7 8 9 10 11 12 13 14 15 16 17 18 19 20 21 22 23 24 25 26 27 28 29 30 31 32 33 34 35 36 37 38 39 40 41 42 43 44 45 46 47 48 49 50
000
ASUS43 KFGF 280931
RWRFGF
PRAIRIE TO PINES  WEATHER ROUNDUP
NATIONAL WEATHER SERVICE EASTERN NORTH DAKOTA/GRAND FORKS ND
400 AM CDT TUE MAR 28 2017

 **SATELLITE DATA USED TO AUGMENT SKY COVER AT AUTOMATED STATIONS**
 *****  WEATHER ACROSS EASTERN NORTH DAKOTA  *****

CITY           SKY/WX    TMP DP  RH WIND       PRES   REMARKS
GRAND FORKS    CLOUDY    34  33  96 N8        30.10S
GRAND FRKS AFB CLOUDY    33  33  99 N6        30.11S
DEVILS LAKE    FAIR      33  31  92 E5        30.10S
FARGO          FOG       34  34 100 N6        30.09R VSB 1/4
WAHPETON ARPT    N/A     32  30  93 N7        30.08S VSB 1/4
$$

 ***** WEATHER ACROSS CENTRAL AND WESTERN NORTH DAKOTA  *****

CITY           SKY/WX    TMP DP  RH WIND       PRES   REMARKS
BISMARCK       FAIR      34  31  88 CALM      30.03S
MINOT          CLOUDY    35  34  96 NE10      30.07S
JAMESTOWN      FOG       34  34 100 NE3       30.07S VSB 1/4
MINOT AFB      CLOUDY    34  34  99 E15       30.07S WCI  24
GARRISON         N/A     34  34 100 NE6       30.03S
WILLISTON      CLOUDY    38  35  89 NE7       30.02R
DICKINSON      FAIR      33  28  81 NE5       29.98R
HETTINGER      FAIR      35  31  85 SE5       30.01R
$$

 *****  OTHER AIRPORT OBSERVATIONS IN OUR AREA  *****

CITY           SKY/WX    TMP DP  RH WIND       PRES   REMARKS
WALHALLA       NOT AVBL
GRAFTON AIRPOR PTSUNNY   32  32 100 N12       30.14S WCI  23
VALLEY CITY AR MIX PCPN  30  30 100 CALM      30.08F VSB<1/4
CANDO          NOT AVBL
CAVALIER APRT  FAIR      32  30  93 N7        30.14S
GWINNER        FOG       32  32 100 MISG      30.07S VSB 0
SHEYENNE NWR     N/A     33  33 100 NE7       29.95S
ROLLA          CLOUDY    32  32 100 NE8       30.13R WCI  25
 ***** THE ABOVE OBSERVATIONS ARE NON NWS ARE NOT QUALITY
       CONTROLLED AND MAY MIS-REPORT RAIN FOR SNOW...
$$

  *****  WEATHER ACROSS NORTHERN MINNESOTA  *****

CITY           SKY/WX    TMP DP  RH WIND       PRES   REMARKS
FLAG ISLAND    FAIR      34  30  86 N6        30.12R
WARROAD        FAIR      36  30  80 N6        30.12S
ROSEAU         FAIR      34  28  80 N6        30.12R
HALLOCK        CLOUDY    34  32  93 N6        30.13R
THF RVR FALLS  CLOUDY   N/A N/A N/A N7        30.11R
BAUDETTE       FAIR      33  28  81 NW3       30.10R
WASKISH        MOCLDY    30  28  93 CALM      30.08S
CROOKSTON      CLOUDY    34  34 100 NE6       30.10F FOG
STEPHEN NDAWN    N/A     32  32 100 NW3         N/A
GREENBUSH NDAW   N/A     34  30  86 N3          N/A
$$
  *****  WEATHER ACROSS CENTRAL AND WEST MINNESOTA  *****

CITY           SKY/WX    TMP DP  RH WIND       PRES   REMARKS
FOSSTON        MOCLDY    34  30  86 N3        30.09S
BEMIDJI        FAIR      30  26  86 CALM      30.06S
PARK RAPIDS    FAIR      30  23  75 N5        30.05F
ELBOW LAKE     FAIR      33  32  94 SE3       30.06S
WADENA         FAIR      28  27  93 CALM      30.05S
DETROIT LAKES  FAIR      32  32 100 NW3       30.08R FOG
MOORHEAD       DRZL/FOG  34  32  93 N8        30.10S VSB 1/4
FERGUS FALLS   FAIR      34  34 100 N6        30.10R
MORRIS MN      FAIR      34  30  86 CALM      30.05F
STAPLES        FAIR      27  25  93 S3        30.06S
$$
  *****  WEATHER ELSEWHERE ACROSS MINNESOTA  *****

CITY           SKY/WX    TMP DP  RH WIND       PRES   REMARKS
DULUTH         FAIR      29  26  89 N3        30.06S
INTRNTL FALLS  CLOUDY    39  27  62 NE3       30.08S
ELY            CLOUDY    28  27  93 CALM      30.08R
CLOQUET        FAIR      27  25  93 NW3       30.08R
WHEATON        FAIR      30  28  93 CALM      30.09R
BRAINERD       FAIR      27  25  92 CALM      30.08R
HIBBING        MOCLDY    25  24  96 CALM      30.07S
ALEXANDRIA     FAIR      34  32  92 S3        30.06F
SAINT CLOUD    FAIR      30  28  92 N5        30.07R
MINNEAPOLIS    FAIR      39  34  82 CALM      30.06S
$$

  *****  WEATHER ACROSS SOUTH DAKOTA  *****

CITY           SKY/WX    TMP DP  RH WIND       PRES   REMARKS
SIOUX FALLS    FAIR      33  32  96 NE3       30.05F FOG
BROOKINGS      FAIR      37  35  92 CALM      30.05S
WATERTOWN      CLOUDY    38  35  89 CALM      30.05S
HURON          FAIR      38  37  97 S7        30.03F
SISSETON         N/A     30  28  92 NW6       30.05S WCI  24
ABERDEEN       FAIR      30  32 100 NE7       30.04F WCI  23
MITCHELL       FAIR      36  35  96 SE5       30.05R
PIERRE         FAIR      38  33  82 E10       29.98F
MOBRIDGE       FAIR      36  29  75 CALM      30.01R
RAPID CITY     FAIR      40  33  76 N9        29.94S
$$

  *****  SOME WEATHER IN NEARBY STATES *****

CITY           SKY/WX    TMP DP  RH WIND       PRES   REMARKS
GLASGOW MT     FAIR      35  32  88 E7        29.98R
GREAT FALLS MT FAIR      33  26  75 SW14      30.05R WCI  23
CHEYENNE WY    CLOUDY    39  37  92 N10       29.85F
SCOTTSBLUFF NE LGT RAIN  48  45  89 NE7       29.88F
OMAHA NE       FAIR      35  31  85 NW3       30.05S
DES MOINES IA  CLOUDY    47  40  76 NW3       30.04S
DAVENPORT IA   CLOUDY    47  45  93 N3        30.02R
CHICAGO IL     CLOUDY    42  35  76 N10       30.00R
EAU CLAIRE WI  FOG       28  26  92 CALM      30.07R VSB 1/2
LA CROSSE WI   FAIR      35  34  96 N8        30.07R
$$

  *****  SOME NATIONAL WEATHER *****

CITY           SKY/WX    TMP DP  RH WIND       PRES   REMARKS
LA GUARDIA NY  LGT RAIN  44  41  89 NE7       29.95F FOG
RALEIGH NC     MOCLDY    64  55  72 SW10      29.93F
ATLANTA GA     CLOUDY    63  60  90 NW6       29.97R
NEW ORLEANS LA MOCLDY    70  69  97 S5        29.94S
OKLAHOMA CITY  FAIR      49  47  93 E7        29.93F
ALBUQUERQUE NM MOCLDY    50  37  61 CALM      29.82F
SALT LAKE CITY MOCLDY    40  33  76 N10       30.02R
LOS ANGELES CA FAIR      62  38  40 N17G28    29.98F
BOISE ID       FAIR      38  32  79 NW7       30.21R
SEATTLE WA     LGT RAIN  44  42  93 S12       30.26F
$$

*** WEATHER ACROSS MANITOBA...SASKATCHEWAN AND ONTARIO ***
                ***ONTARIO***

CITY           SKY/WX    TMP DP  RH WIND       PRES   REMARKS
GERALDTON      MOCLDY    27  23  86 NE3       30.09R
THUNDER BAY    MOCLDY    28  28 100 SW2       30.07S
SIOUX LOOKOUT  PTCLDY    28  21  74 VRB2      30.13R
TORONTO        CLOUDY    43  41  93 N7        29.88F
BIG TROUT LK   FLURRIES  14  10  85 N6        30.23R WCI   5
PICKLE LAKE    NOT AVBL
DRYDEN         CLEAR     30  23  74 NE9       30.11R WCI  22
KENORA         PTCLDY    32  25  74 NE7       30.12R
$$
                *** MANITOBA***

CITY           SKY/WX    TMP DP  RH WIND       PRES   REMARKS
BRANDON        PTCLDY    28  25  86 E12       30.17R WCI  18
DAUPHIN        CLOUDY    28  25  86 E7        30.22R WCI  21
ISLAND LAKE    PTCLDY    10   7  85 VRB2      30.29R
PILOT MOUND      N/A     30  27  86 NE7         N/A  WCI  23
THE PAS        PTCLDY    16  12  86 SE2       30.26R
THOMPSON       CLEAR      5   1  85 NE5       30.34R WCI  -4
WINNIPEG       MOCLDY    30  27  86 NE10      30.17S WCI  21
LYNN LAKE      CLEAR      5   3  92 SE5       30.29S WCI  -4
CHURCHILL      FOG       -8 -11  84 NW9       30.42S VSB 1/4 WCI -25
GILLAM         FLURRIES   3   0  85 N5        30.36R WCI  -6
$$
                ***SASKATCHEWAN***

CITY           SKY/WX    TMP DP  RH WIND       PRES   REMARKS
ESTEVAN        CLOUDY    32  32 100 E13G18    30.07R WCI  22
KINDERSLEY     CLOUDY    37  36  93 SE13      29.94S
LLOYDMINSTER   CLOUDY    32  32 100 SE10      29.96F WCI  24
PRINCE ALBERT  CLOUDY    30  25  80 E8        30.12S WCI  23
REGINA         MOCLDY    34  30  86 E13       30.07S WCI  25
YORKTON        CLOUDY    30  27  86 SE7       30.15S WCI  23
N. BATTLEFORD  CLOUDY    34  34 100 SE16      30.03S WCI  23
LA RONGE       CLEAR     14  10  85 NE6       30.16S WCI   5
SASKATOON      CLOUDY    34  32  93 SE9       30.07S
SWIFT CURRENT  CLOUDY    36  32  87 S7        29.98F
$$
NOTE: THESE ARE AUTOMATED STATIONS WITH LIMITED QUALITY CONTROL
      "FAIR" INDICATES FEW OR NO CLOUDS BELOW 12,000 FEET WITH NO
      SIGNIFICANT WEATHER AND/OR OBSTRUCTIONS TO VISIBILITY.
      SKY/WX - SKY CONDITION AND SIGNIFICANT WEATHER.
      TMP - AIR TEMPERATURE.    DP   - DEWPOINT TEMPERATURE.
      RH  - RELATIVE HUMIDITY.  PRES - PRESSURE.
      HX  - HEAT INDEX.         WCI  - WIND CHILL INDEX.
$



USA.gov is the U.S. government's official web portal to all federal, state and local government web resources and services.